Wind_Speed
71 72 73 74 75 76 77 78 79 80 81 81 81 81 81 83 85 87 90 91 91 89 87 86 86 86 83 80 77 75 74 73 73 73 74 75 76 77 78 80 81 82
72 73 73 74 75 77 78 79 80 81 81 81 81 81 81 83 85 88 90 91 89 87 86 86 85 82 78 74 72 71 69 68 68 67 68 68 69 70 71 73 74 76
73 73 74 75 76 77 78 79 80 81 81 81 81 81 82 84 86 88 90 90 88 86 85 84 81 76 72 70 69 68 67 65 64 64 63 63 63 64 65 66 67 68
73 74 75 76 77 78 79 80 80 81 81 81 81 81 82 84 86 88 89 88 86 84 83 81 76 71 69 67 66 65 64 63 61 60 60 59 59 60 60 61 61 62
73 74 75 76 77 78 79 80 81 82 82 81 81 82 83 85 87 88 88 86 84 82 81 76 71 67 65 64 63 62 61 59 58 57 57 56 56 57 57 57 58 58
74 75 75 76 78 79 79 80 81 82 82 82 82 82 84 85 87 88 87 85 82 80 78 72 67 64 62 61 60 59 58 56 55 54 54 53 54 54 54 55 55 55
74 75 76 77 78 79 80 81 82 82 82 82 82 83 84 86 87 87 85 83 80 78 74 68 64 61 59 58 57 56 55 53 52 52 51 51 51 51 52 52 53 53
75 76 77 78 79 80 80 81 82 82 83 83 83 83 85 86 86 86 84 81 78 76 71 65 61 58 57 56 55 53 52 51 50 49 49 48 48 48 49 49 50 49
75 76 78 78 79 80 80 81 82 83 83 83 83 84 85 86 86 85 82 79 76 73 67 62 58 56 55 54 53 51 49 48 47 47 46 46 46 46 46 46 46 45
76 77 78 78 79 80 81 82 82 83 83 84 84 84 85 85 85 84 80 76 74 70 64 59 56 54 53 52 51 49 47 45 45 44 43 43 42 42 41 41 41 40
76 77 78 78 79 80 81 82 82 83 84 84 84 84 85 85 85 83 79 74 72 68 62 56 54 52 51 50 49 48 45 43 42 41 40 39 38 37 37 36 36 37
76 77 77 78 79 80 81 82 82 83 84 84 84 85 85 85 84 81 77 73 70 66 60 55 52 51 50 49 47 46 44 42 40 39 38 37 36 35 35 35 36 38
76 77 77 78 79 80 81 82 82 83 84 84 85 85 85 85 83 80 76 72 69 65 58 53 50 49 48 47 46 44 43 41 40 39 37 36 36 35 36 37 38 40
76 77 77 78 79 81 81 82 83 83 84 84 85 85 85 84 82 79 75 70 67 63 57 52 49 48 47 46 45 44 43 41 40 39 38 37 36 36 37 38 40 42
76 77 77 78 80 81 81 82 83 84 84 84 85 85 85 84 81 78 74 69 66 62 56 50 48 47 47 46 45 43 43 42 41 40 38 37 37 37 38 39 41 44
76 76 77 78 80 81 81 82 83 84 84 84 85 85 85 83 80 77 73 68 65 61 55 50 47 46 46 45 44 43 43 42 41 40 39 38 38 38 39 40 43 45
76 76 77 78 80 81 82 82 83 84 84 85 85 85 84 82 79 76 72 68 64 60 54 49 46 45 45 45 44 43 43 43 42 40 39 39 38 39 39 41 43 46
75 76 77 79 80 81 82 83 84 84 85 85 85 85 84 81 78 74 70 67 63 59 54 49 46 45 45 45 44 43 44 44 43 41 39 38 38 39 40 41 43 46
75 76 77 79 80 81 82 83 84 85 85 85 86 85 83 80 76 73 69 66 63 58 53 49 46 45 45 45 44 43 44 45 44 42 40 39 38 40 41 42 44 46
75 76 78 80 81 82 82 83 84 85 85 86 86 85 83 79 75 71 67 64 62 58 53 48 46 45 45 44 44 43 44 46 45 43 41 40 40 40 41 43 45 46
75 77 79 80 81 82 83 84 85 85 85 86 86 85 81 77 73 69 66 63 61 57 52 47 46 45 45 44 44 43 44 45 45 44 42 41 40 41 42 44 45 46
76 78 79 80 81 82 83 84 85 85 86 87 86 84 80 76 72 68 64 61 59 56 51 47 45 45 45 44 43 43 44 45 45 44 42 41 41 42 43 44 45 46
77 78 79 80 81 82 83 84 85 85 86 87 86 83 79 74 70 66 63 60 58 54 50 46 44 45 45 44 43 43 44 45 45 44 42 41 41 42 43 43 44 46
77 79 79 80 81 83 84 85 85 86 87 87 85 82 77 72 68 64 61 59 56 53 49 45 43 44 45 44 43 43 44 46 46 44 42 41 41 42 42 43 44 45
78 79 80 80 82 83 84 85 86 86 87 87 84 80 75 70 66 63 59 57 54 51 48 45 42 42 43 43 42 43 44 46 46 44 41 41 41 41 41 42 43 44
78 79 80 81 82 84 85 86 86 87 87 86 83 79 74 68 64 61 57 54 52 50 46 44 42 41 41 42 42 43 44 46 46 44 42 41 40 40 40 41 42 44
Wind_Direction
309 310 310 310 309 309 309 309 310 310 310 308 307 306 307 307 309 310 311 310 309 307 305 304 303 301 298 296 293 291 289 286 284 281 278 276 274 272 271 269 268 267
310 311 311 311 310 310 310 310 311 311 310 309 309 308 308 309 311 312 312 312 310 309 307 306 304 302 299 297 295 292 290 288 285 282 280 277 276 274 272 271 269 269
311 312 312 311 311 311 311 311 312 312 311 310 310 309 310 311 313 314 314 313 311 310 308 307 305 302 299 298 296 293 291 288 286 283 281 279 277 275 273 272 271 270
312 312 312 312 311 311 312 312 313 313 312 311 311 311 312 313 315 315 315 314 312 311 310 308 304 302 300 298 296 294 292 289 286 283 281 280 278 276 274 273 272 271
312 312 312 312 311 312 313 313 314 313 313 313 312 313 314 315 316 317 316 315 313 312 311 308 304 302 300 299 298 296 293 290 286 284 282 280 278 277 275 274 273 272
312 312 312 312 312 313 314 315 315 314 314 314 314 314 315 316 318 318 317 315 314 313 311 307 303 302 301 300 299 297 294 291 287 284 283 281 279 278 276 275 274 273
313 312 312 312 313 314 315 316 316 316 315 315 315 315 316 318 319 319 318 316 314 313 311 306 303 302 302 301 301 298 295 292 288 286 284 282 280 279 277 275 274 273
313 312 312 313 314 315 316 316 317 317 316 316 316 317 317 319 319 319 318 316 315 314 310 305 303 302 302 302 301 299 296 293 290 288 285 284 282 280 278 276 275 274
313 313 313 314 315 316 317 317 317 317 317 317 317 317 318 319 320 320 318 316 315 313 309 304 302 302 302 302 300 298 296 294 292 289 287 285 283 281 279 278 277 275
313 313 314 314 316 317 318 318 318 318 317 317 318 318 319 320 320 320 319 316 315 313 308 302 301 301 302 301 300 298 297 295 293 291 289 287 284 282 281 279 278 277
313 313 314 315 317 318 318 318 318 318 318 318 318 319 320 321 321 320 318 316 314 312 306 301 300 301 301 300 299 298 298 296 294 292 290 288 287 285 283 281 280 280
313 314 315 316 318 318 318 318 319 319 319 318 319 319 320 321 321 320 318 316 314 311 305 300 298 300 300 299 298 297 297 296 294 292 290 289 288 287 285 284 283 282
314 314 315 317 318 318 318 319 319 319 319 319 319 320 320 321 320 319 318 315 313 311 305 298 297 298 298 298 297 296 296 294 293 291 290 290 288 287 286 286 285 285
314 315 316 317 318 318 319 319 319 319 319 319 319 320 321 321 320 319 317 315 313 310 304 297 295 296 296 296 295 295 294 293 292 291 290 289 289 288 288 288 288 287
315 315 317 318 318 319 319 319 319 319 319 319 320 320 321 321 320 319 317 314 312 309 303 295 292 293 294 294 293 293 292 291 291 291 290 290 290 290 290 290 289 288
315 316 317 318 318 319 319 319 319 319 319 320 320 320 321 321 320 318 316 314 312 309 303 294 290 290 291 292 291 291 290 290 290 290 291 291 292 292 292 291 290 289
315 316 317 318 318 319 319 319 319 320 320 320 320 321 321 321 319 317 315 313 311 309 302 294 288 287 289 289 289 289 289 288 288 289 291 292 293 293 293 292 290 289
316 317 317 318 319 319 319 319 320 320 320 320 320 321 321 320 319 317 315 313 311 308 302 294 287 284 286 287 287 287 287 288 289 290 291 293 294 294 293 291 290 288
316 317 318 318 319 319 319 320 320 320 320 320 321 321 321 320 318 316 314 312 310 308 302 294 286 282 283 285 286 286 287 287 289 291 293 294 295 294 293 292 290 290
316 317 318 319 319 319 320 320 320 320 320 320 321 321 321 320 318 315 313 311 309 307 302 295 287 281 281 283 285 285 286 287 289 292 293 294 295 294 293 292 292 292
316 318 318 319 319 319 320 320 320 320 320 320 321 321 321 319 317 315 313 310 309 306 302 295 287 281 279 281 283 284 285 287 289 291 293 295 296 295 294 294 294 294
317 318 319 319 320 320 320 320 320 320 320 321 321 321 320 319 317 314 312 310 308 305 301 295 288 281 278 279 282 283 284 286 288 291 293 296 296 296 295 295 295 296
317 318 319 320 320 320 320 320 320 321 321 321 321 321 320 318 316 314 312 309 307 305 300 295 288 281 277 278 280 282 283 285 288 291 294 296 296 296 296 296 297 297
318 319 319 320 320 320 320 321 321 321 321 321 321 321 320 318 315 313 311 309 306 304 299 294 288 281 276 277 279 281 283 285 288 291 294 295 296 296 297 298 298 298
318 319 320 320 320 321 321 321 321 321 321 321 321 321 319 317 315 313 312 309 306 303 299 295 289 281 276 275 277 279 281 284 287 291 294 295 295 296 297 298 299 299
319 320 320 320 321 321 321 321 321 321 321 321 321 320 319 317 315 313 312 309 305 302 299 295 290 282 276 274 275 277 280 284 287 291 293 294 295 296 298 298 299 300
Height
5502 5497 5492 5486 5481 5475 5469 5464 5458 5452 5445 5439 5432 5426 5420 5414 5407 5399 5391 5383 5374 5365 5358 5350 5343 5336 5329 5324 5319 5315 5312 5309 5306 5304 5301 5299 5298 5298 5297 5297 5297 5297
5493 5488 5483 5477 5472 5466 5460 5455 5449 5442 5435 5429 5422 5416 5409 5403 5395 5387 5378 5370 5361 5352 5345 5337 5329 5322 5316 5311 5307 5303 5299 5297 5294 5291 5289 5288 5286 5285 5285 5284 5284 5284
5485 5479 5474 5469 5463 5457 5451 5446 5439 5432 5426 5419 5412 5406 5399 5392 5384 5375 5366 5357 5349 5340 5332 5325 5317 5311 5305 5301 5296 5292 5289 5286 5283 5280 5278 5277 5276 5275 5274 5273 5273 5273
5476 5471 5466 5460 5454 5449 5443 5436 5430 5423 5416 5409 5402 5395 5388 5381 5373 5364 5355 5345 5337 5329 5321 5313 5306 5301 5296 5291 5286 5282 5279 5275 5273 5270 5268 5267 5266 5265 5264 5264 5264 5263
5468 5463 5457 5451 5446 5440 5434 5427 5420 5413 5406 5399 5392 5384 5377 5369 5361 5353 5344 5335 5326 5318 5311 5303 5297 5292 5287 5282 5277 5273 5270 5266 5263 5261 5259 5259 5257 5256 5256 5255 5255 5255
5460 5454 5448 5443 5437 5430 5424 5417 5410 5403 5395 5388 5381 5374 5366 5358 5350 5342 5333 5324 5316 5308 5301 5294 5288 5283 5278 5274 5270 5265 5261 5258 5255 5253 5251 5251 5249 5248 5248 5247 5247 5247
5451 5445 5439 5433 5427 5421 5414 5407 5400 5392 5385 5378 5371 5363 5355 5348 5340 5331 5322 5314 5306 5298 5291 5285 5280 5275 5271 5266 5262 5258 5254 5250 5248 5245 5244 5243 5242 5241 5240 5239 5239 5240
5442 5436 5430 5424 5418 5411 5405 5397 5389 5382 5374 5367 5361 5353 5345 5337 5329 5321 5312 5304 5297 5289 5282 5277 5272 5267 5263 5259 5255 5250 5247 5243 5241 5239 5237 5236 5235 5234 5233 5232 5232 5233
5434 5428 5421 5415 5409 5402 5395 5387 5379 5372 5365 5358 5351 5343 5335 5327 5319 5311 5303 5295 5288 5281 5275 5269 5265 5260 5256 5252 5248 5244 5240 5237 5234 5232 5231 5229 5228 5227 5226 5225 5225 5226
5426 5419 5413 5406 5400 5393 5385 5378 5370 5363 5355 5348 5341 5333 5325 5317 5309 5301 5293 5286 5279 5273 5267 5262 5258 5254 5249 5245 5241 5238 5235 5232 5229 5226 5225 5223 5222 5221 5220 5220 5220 5220
5417 5410 5404 5398 5391 5384 5376 5369 5362 5354 5346 5338 5331 5323 5316 5308 5300 5292 5285 5278 5271 5265 5259 5255 5251 5247 5243 5239 5235 5232 5229 5227 5224 5221 5219 5218 5217 5216 5215 5215 5215 5215
5408 5402 5395 5389 5382 5375 5367 5360 5353 5345 5337 5329 5321 5314 5306 5299 5291 5283 5276 5269 5263 5257 5252 5248 5244 5240 5237 5233 5229 5226 5224 5221 5219 5217 5215 5213 5212 5211 5210 5210 5210 5209
5399 5393 5386 5380 5373 5366 5358 5351 5344 5336 5328 5320 5312 5305 5297 5290 5282 5275 5268 5261 5255 5250 5245 5241 5237 5234 5230 5226 5223 5221 5218 5216 5214 5211 5210 5209 5207 5207 5206 5205 5204 5203
5390 5384 5378 5371 5364 5357 5350 5342 5335 5327 5320 5312 5304 5296 5288 5281 5274 5267 5260 5253 5247 5242 5237 5234 5230 5227 5224 5220 5217 5215 5212 5210 5208 5206 5205 5204 5202 5202 5201 5199 5199 5197
5382 5376 5370 5363 5356 5349 5341 5334 5327 5319 5312 5304 5296 5288 5280 5272 5265 5258 5251 5245 5240 5234 5230 5226 5223 5220 5217 5214 5211 5209 5206 5204 5202 5201 5200 5199 5197 5196 5195 5194 5192 5190
5375 5368 5362 5355 5348 5341 5333 5326 5318 5311 5303 5296 5288 5280 5272 5264 5257 5249 5243 5237 5232 5227 5222 5219 5216 5213 5210 5207 5205 5203 5200 5198 5196 5195 5194 5193 5192 5191 5189 5188 5185 5183
5367 5360 5354 5347 5340 5332 5325 5317 5310 5302 5294 5287 5279 5271 5263 5255 5248 5241 5234 5228 5223 5219 5215 5211 5209 5206 5203 5201 5199 5196 5193 5191 5190 5190 5188 5187 5186 5185 5183 5181 5179 5176
5359 5353 5346 5339 5332 5324 5317 5309 5301 5294 5286 5278 5270 5263 5255 5247 5239 5232 5226 5220 5215 5211 5207 5204 5201 5198 5196 5194 5192 5190 5187 5184 5183 5183 5183 5182 5181 5179 5177 5174 5172 5169
5351 5345 5338 5331 5324 5316 5309 5301 5293 5285 5277 5270 5262 5254 5246 5239 5231 5224 5218 5212 5206 5202 5199 5196 5193 5190 5188 5187 5185 5183 5180 5177 5176 5176 5176 5176 5174 5172 5170 5167 5164 5162
5343 5337 5330 5323 5316 5308 5300 5292 5285 5277 5269 5261 5253 5246 5238 5230 5223 5216 5210 5204 5198 5194 5191 5188 5185 5182 5181 5180 5178 5176 5173 5170 5169 5170 5169 5169 5168 5165 5163 5160 5156 5154
5335 5329 5322 5315 5307 5299 5292 5284 5276 5268 5260 5252 5244 5237 5229 5221 5214 5207 5202 5196 5190 5186 5183 5181 5177 5174 5173 5172 5171 5169 5166 5164 5163 5163 5163 5162 5161 5158 5155 5152 5149 5146
5327 5321 5314 5307 5299 5291 5283 5275 5267 5259 5251 5243 5236 5228 5220 5212 5205 5199 5193 5188 5183 5178 5175 5173 5170 5166 5165 5165 5164 5162 5160 5158 5157 5157 5156 5155 5153 5150 5147 5144 5142 5139
5319 5313 5306 5298 5291 5283 5275 5267 5259 5251 5242 5234 5227 5220 5211 5204 5197 5191 5185 5180 5175 5171 5167 5165 5163 5159 5157 5158 5157 5155 5153 5151 5150 5150 5150 5149 5146 5143 5140 5138 5135 5131
5311 5305 5298 5290 5282 5274 5266 5258 5250 5242 5234 5226 5218 5211 5203 5196 5189 5183 5177 5171 5167 5163 5160 5158 5156 5152 5150 5150 5150 5148 5146 5144 5143 5144 5143 5142 5139 5137 5134 5131 5128 5124
5303 5296 5289 5281 5274 5266 5257 5249 5241 5233 5225 5217 5209 5201 5195 5187 5180 5175 5170 5164 5159 5155 5152 5150 5149 5146 5144 5143 5143 5141 5139 5137 5136 5137 5137 5135 5133 5130 5128 5125 5121 5117
5294 5287 5280 5272 5265 5257 5249 5240 5232 5224 5216 5208 5200 5192 5186 5179 5172 5167 5163 5157 5151 5148 5145 5142 5141 5140 5138 5136 5136 5134 5132 5130 5129 5130 5130 5128 5127 5124 5122 5119 5114 5110